Location: Puketoi
(40.5833°S, 176.0167°E)
Time: 14:12:46
(UTC+00:00)

ISS - Pass Details

Date: 08 February 2023
Orbit: 414 x 424 km, 51.6° (Epoch: 31 March)

Event Time Altitude Azimuth Distance (km) Brightness Sun altitude
Exits shadow 15:53:15 - 230° (SW) 2,342 -0.1 -17.2°
Reaches altitude 10° 15:55:22 10° 221° (SW) 1,512 -1.0 -16.9°
Maximum altitude 15:58:35 38° 151° (SSE) 660 -2.2 -16.4°
Drops below altitude 10° 16:01:47 10° 80° (E) 1,505 -0.3 -16.0°
Sets 16:03:58 0° 72° (ENE) 2,362 0.6 -15.6°
